CAPE
0 0 0 0 0 0 0 1 0 0 0 0 0 0 0 0 0 0 0 0 0 0 0 0 0 0 0 0 0 0 0 0 0 0 0 0 0 0 0 0 0 0 0 0 0 0 0
1 2 0 0 0 0 0 0 0 0 0 0 0 0 0 0 0 0 0 0 0 0 0 0 0 0 0 0 0 0 0 0 0 0 0 0 0 0 0 0 0 0 0 0 0 0 0
1 2 0 5 0 0 0 0 0 0 0 0 0 0 0 0 0 0 0 0 0 0 0 0 0 0 0 0 0 0 0 0 0 0 0 0 0 0 0 0 0 0 0 0 0 0 0
7 5 2 1 6 4 1 0 0 0 0 0 0 0 0 0 0 0 0 0 0 0 0 0 0 0 0 0 0 0 0 0 0 0 0 0 0 0 0 0 0 0 0 0 0 0 0
7 9 0 0 0 1 0 0 0 3 2 0 0 0 0 0 0 0 0 0 0 0 0 0 0 0 0 0 0 0 0 0 0 0 0 0 0 0 0 0 0 0 0 0 0 0 0
15 16 16 12 4 8 0 0 0 0 3 2 0 0 0 0 0 0 0 0 0 0 0 0 0 0 0 0 0 0 0 0 0 0 0 0 0 0 0 0 0 0 0 0 0 0 0
25 25 31 17 18 8 2 7 4 2 0 5 5 0 0 0 0 0 0 0 0 0 0 0 0 0 0 0 0 0 0 0 0 0 0 0 0 0 0 0 0 0 0 0 0 0 0
37 42 27 35 31 12 8 10 7 11 7 6 6 2 3 0 0 0 0 0 0 0 0 0 0 0 0 0 0 0 0 0 0 0 0 0 0 0 0 0 0 0 0 0 0 0 0
48 31 21 28 35 25 23 23 22 22 15 9 9 10 13 0 0 0 0 0 0 0 0 0 0 0 0 0 0 0 0 0 0 0 0 0 0 0 0 0 0 0 0 0 0 0 0
59 55 42 27 25 41 56 55 41 39 31 24 18 10 9 0 0 0 0 0 0 0 13 0 0 0 0 0 0 0 0 0 0 0 0 0 0 0 0 0 0 0 0 0 0 0 0
66 62 64 56 53 57 49 51 67 66 45 43 26 23 3 3 0 0 0 0 0 0 0 0 0 0 0 0 0 0 0 0 0 0 0 0 0 0 0 0 0 0 0 0 0 0 0
87 77 72 74 82 77 70 63 55 59 58 54 42 38 24 8 1 0 0 0 0 10 0 0 0 0 0 0 0 0 0 0 0 0 0 0 0 0 0 0 0 0 0 0 0 0 0
73 68 63 71 75 77 80 80 79 73 63 59 50 44 33 2 0 0 0 0 40 23 0 0 0 0 0 0 0 0 0 0 0 0 0 0 0 0 0 0 0 0 0 0 0 0 0
78 77 60 52 62 62 68 68 87 91 82 74 65 57 24 0 0 0 2 18 9 0 0 0 0 0 0 0 0 0 0 0 0 0 0 0 0 0 0 0 0 0 0 0 0 0 0
61 98 93 91 77 87 96 90 82 79 84 96 76 10 2 0 0 1 7 5 0 0 0 0 0 0 0 0 0 26 0 0 0 0 0 0 0 0 0 0 0 0 0 0 0 0 0
87 81 97 103 102 81 87 86 102 94 95 98 0 0 0 0 0 21 40 11 0 0 0 0 0 0 0 4 5 0 2 0 0 0 0 0 0 0 0 0 0 0 0 0 0 0 0
90 83 80 109 113 101 94 116 108 123 100 89 10 19 0 0 17 48 8 0 0 0 0 0 0 0 0 4 6 1 0 0 0 0 0 0 0 0 0 0 0 0 0 0 0 0 0
104 65 100 89 112 118 111 83 99 129 128 44 8 31 4 16 34 16 3 0 0 0 0 0 0 0 0 0 0 0 0 0 0 0 0 0 0 0 0 0 0 0 0 0 0 0 0
90 83 86 76 80 94 86 103 108 114 142 0 1 0 31 100 24 21 7 0 0 0 0 0 0 0 54 50 43 16 2 0 0 0 0 0 0 0 0 0 0 0 0 0 0 0 0
68 66 75 85 84 82 94 85 91 99 152 30 4 0 0 37 11 1 7 2 0 0 0 0 7 0 45 90 31 42 9 0 0 0 0 0 0 0 0 0 0 0 0 0 0 0 0
78 69 70 73 76 77 85 83 93 137 152 65 2 3 0 0 2 18 1 4 0 2 0 0 1 2 0 35 21 25 0 0 0 0 0 0 0 0 0 0 0 0 0 0 0 0 0
66 77 76 82 93 96 96 157 169 188 238 66 0 4 6 3 31 28 21 6 0 0 0 0 0 0 0 81 63 0 0 0 0 0 0 0 0 0 0 0 0 0 0 0 0 0 0
70 56 93 69 82 105 122 182 210 234 231 33 1 0 34 0 0 61 33 1 0 0 0 0 0 0 4 0 21 52 1 0 0 0 0 0 0 0 0 0 0 0 0 0 0 0 0
55 50 63 71 75 90 146 168 184 233 220 12 4 13 29 0 0 0 24 1 13 3 0 0 0 0 0 16 0 0 0 0 0 0 0 0 0 0 0 0 1 0 0 0 0 0 0
67 50 57 63 70 69 93 150 147 201 260 54 13 49 25 16 0 0 0 79 0 0 3 0 0 0 1 62 35 25 0 0 0 0 0 0 0 1 0 1 0 0 0 0 0 0 0
66 48 27 27 53 89 84 77 68 128 231 105 44 38 44 24 0 0 0 0 38 1 1 0 0 2 74 0 1 11 0 0 1 1 0 0 0 0 4 1 0 0 0 0 0 0 0
35 23 45 48 49 58 58 43 44 56 104 106 37 45 49 28 0 0 1 2 0 1 0 0 0 65 44 15 5 6 0 0 0 0 6 0 2 0 0 0 0 0 0 0 0 0 0
10 34 34 30 34 43 51 52 48 90 97 97 25 26 5 13 2 0 0 0 19 16 0 0 23 7 11 18 12 0 0 0 0 0 0 0 0 0 0 0 0 0 0 0 0 0 0
37 27 24 19 23 23 29 23 53 34 35 54 4 22 9 18 0 0 0 0 0 19 3 0 0 0 5 18 2 0 0 0 0 0 0 0 0 0 0 0 0 0 0 0 0 0 0
CIN
-0 -0 -0 -0 -0 -0 -0 -0 -0 -0 -0 -0 -0 -0 -0 -0 -0 -0 -0 -0 -0 -0 -0 -0 -0 -0 -0 -0 -0 -0 -0 -0 -0 -0 -0 -0 -0 -0 -0 -0 -0 -0 -0 -0 -0 -0 -0
-0 -1 -0 -0 -0 -0 -0 -0 -0 -0 -0 -0 -0 -0 -0 -0 -0 -0 -0 -0 -0 -0 -0 -0 -0 -0 -0 -0 -0 -0 -0 -0 -0 -0 -0 -0 -0 -0 -0 -0 -0 -0 -0 -0 -0 -0 -0
-0 -0 -1 -3 -0 -0 -0 -0 -0 -0 -0 -0 -0 -0 -0 -0 -0 -0 -0 -0 -0 -0 -0 -0 -0 -0 -0 -0 -0 -0 -0 -0 -0 -0 -0 -0 -0 -0 -0 -0 -0 -0 -0 -0 -0 -0 -0
-1 -3 -4 -1 -2 -2 -2 -0 -0 -0 -0 -0 -0 -0 -0 -0 -0 -0 -0 -0 -0 -0 -0 -0 -0 -0 -0 -0 -0 -0 -0 -0 -0 -0 -0 -0 -0 -0 -0 -0 -0 -0 -0 -0 -0 -0 -0
-2 -1 -0 -0 -0 -4 -0 -0 -0 -2 -2 -0 -0 -0 -0 -0 -0 -0 -0 -0 -0 -0 -0 -0 -0 -0 -0 -0 -0 -0 -0 -0 -0 -0 -0 -0 -0 -0 -0 -0 -0 -0 -0 -0 -0 -0 -0
-1 -1 -0 -1 -2 -1 -0 -0 -1 -0 -2 -4 -0 -0 -0 -0 -0 -0 -0 -0 -0 -0 -0 -0 -0 -0 -0 -0 -0 -0 -0 -0 -0 -0 -0 -0 -0 -0 -0 -0 -0 -0 -0 -0 -0 -0 -0
-0 -0 -0 -0 -1 -1 -1 -1 -2 -5 -0 -3 -5 -0 -0 -0 -8 -0 -0 -0 -0 -0 -0 -0 -0 -0 -0 -0 -0 -0 -0 -0 -0 -0 -0 -0 -0 -0 -0 -0 -0 -0 -0 -0 -0 -0 -0
-1 -1 -2 -0 -0 -0 -0 -0 -1 -3 -5 -5 -8 -5 -8 -0 -0 -0 -0 -0 -0 -0 -0 -0 -0 -0 -0 -0 -0 -0 -0 -0 -0 -0 -0 -0 -0 -0 -0 -0 -0 -0 -0 -0 -0 -0 -0
-2 -7 -6 -4 -3 -1 -0 -0 -1 -1 -2 -5 -6 -10 -6 -1 -0 -0 -0 -0 -0 -0 -0 -0 -0 -0 -0 -0 -0 -0 -0 -0 -0 -0 -0 -0 -0 -0 -0 -0 -0 -0 -0 -0 -0 -0 -0
-1 -3 -2 -3 -1 -1 -1 -0 -1 -2 -2 -3 -4 -5 -27 -0 -1 -0 -0 -0 -0 -0 -2 -0 -0 -0 -0 -0 -0 -0 -0 -0 -0 -0 -0 -0 -0 -0 -0 -0 -0 -0 -0 -0 -0 -0 -0
-0 -1 -0 -0 -1 -1 -2 -2 -1 -0 -1 -2 -3 -3 -31 -19 -0 -0 -0 -0 -0 -68 -0 -0 -0 -0 -0 -0 -0 -0 -0 -0 -0 -0 -0 -0 -0 -0 -0 -0 -0 -0 -0 -0 -0 -0 -0
-0 -1 -1 -1 -0 -1 -1 -2 -2 -1 -1 -2 -3 -3 -20 -14 -6 -0 -0 -0 -0 -2 -0 -0 -0 -0 -0 -0 -0 -0 -0 -0 -0 -0 -0 -0 -0 -0 -0 -0 -0 -0 -0 -0 -0 -0 -0
-2 -3 -1 -1 -1 -0 -1 -1 -2 -2 -2 -2 -4 -4 -0 -28 -0 -0 -0 -0 -0 -2 -0 -0 -0 -0 -0 -0 -0 -0 -0 -0 -0 -0 -0 -0 -0 -0 -0 -0 -0 -0 -0 -0 -0 -0 -0
-0 -0 -3 -2 -1 -1 -1 -1 -0 -1 -2 -3 -7 -5 -2 -0 -0 -0 -40 -12 -1 -0 -0 -0 -0 -0 -0 -0 -0 -0 -0 -0 -0 -0 -0 -0 -0 -0 -0 -0 -0 -0 -0 -0 -0 -0 -0
-0 -0 -0 -0 -0 -0 -0 -0 -2 -2 -2 -2 -12 -41 -6 -0 -0 -21 -9 -25 -0 -0 -0 -0 -0 -0 -0 -0 -0 -16 -0 -0 -0 -0 -0 -0 -0 -0 -0 -0 -0 -0 -0 -0 -0 -0 -0
-0 -0 -0 -0 -0 -0 -1 -2 -1 -1 -3 -8 -0 -4 -0 -0 -0 -11 -0 -1 -0 -0 -0 -0 -0 -0 -0 -15 -8 -0 -8 -0 -0 -0 -0 -0 -0 -0 -0 -0 -0 -0 -0 -0 -0 -0 -0
-0 -0 -0 -0 -0 -0 -0 -0 -1 -0 -5 -24 -17 -1 -0 -0 -17 -0 -0 -0 -0 -0 -0 -0 -0 -0 -0 -26 -15 -11 -0 -0 -0 -0 -0 -0 -0 -0 -0 -0 -0 -0 -0 -0 -0 -0 -0
-2 -0 -1 -2 -0 -0 -0 -0 -0 -0 -4 -27 -14 -0 -14 -24 -0 -6 -8 -0 -0 -0 -0 -0 -0 -0 -0 -0 -0 -0 -0 -0 -0 -0 -0 -0 -0 -0 -0 -0 -0 -0 -0 -0 -0 -0 -0
-0 -0 -0 -0 -0 -0 -0 -0 -0 -1 -2 -0 -0 -2 -2 -3 -1 -0 -0 -1 -0 -0 -0 -0 -0 -0 -19 -18 -18 -43 -14 -0 -0 -0 -0 -0 -0 -0 -0 -0 -0 -0 -0 -0 -0 -0 -0
-0 -0 -0 -0 -0 -0 -0 -0 -0 -1 -1 -14 -2 -4 -0 -26 -7 -1 -1 -1 -0 -0 -0 -0 -3 -0 -10 -12 -50 -16 -37 -0 -0 -0 -0 -0 -0 -0 -0 -0 -0 -0 -0 -0 -0 -0 -0
-0 -0 -0 -0 -0 -0 -0 -0 -0 -0 -1 -6 -1 -28 -0 -0 -61 -0 -1 -3 -0 -0 -0 -0 -8 -30 -0 -7 -25 -26 -0 -0 -0 -0 -0 -0 -0 -0 -0 -0 -0 -0 -0 -0 -0 -0 -0
-0 -0 -0 -0 -0 -0 -0 -0 -0 -0 -0 -2 -0 -7 -31 -28 -6 -25 -0 -1 -0 -0 -0 -0 -0 -0 -0 -5 -21 -1 -0 -0 -0 -0 -0 -0 -0 -0 -0 -0 -0 -0 -0 -0 -0 -0 -0
-0 -0 -0 -0 -0 -0 -0 -0 -0 -0 -0 -4 -12 -0 -9 -0 -0 -8 -11 -1 -0 -0 -0 -0 -0 -0 -18 -0 -67 -37 -3 -0 -0 -0 -0 -0 -0 -0 -0 -0 -0 -0 -0 -0 -0 -0 -0
-0 -0 -0 -0 -0 -0 -0 -0 -0 -0 -0 -9 -10 -4 -1 -0 -0 -0 -1 -2 -5 -84 -71 -0 -0 -0 -0 -67 -0 -0 -0 -0 -0 -0 -0 -0 -0 -0 -0 -0 -0 -0 -0 -0 -0 -0 -0
-0 -0 -0 -0 -0 -0 -0 -0 -0 -0 -0 -3 -5 -5 -3 -3 -0 -0 -0 -0 -0 -2 -20 -0 -0 -0 -10 -96 -38 -7 -1 -0 -0 -0 -0 -0 -0 -0 -0 -0 -0 -0 -0 -0 -0 -0 -0
-0 -0 -0 -0 -0 -0 -0 -0 -0 -0 -0 -2 -2 -6 -6 -1 -0 -0 -0 -0 -2 -4 -1 -0 -2 -8 -68 -0 -49 -8 -0 -0 -0 -0 -0 -0 -0 -0 -0 -0 -0 -0 -0 -0 -0 -0 -0
-0 -0 -0 -0 -0 -0 -0 -0 -0 -3 -0 -1 -3 -3 -1 -0 -0 -0 -0 -1 -0 -4 -0 -0 -0 -36 -65 -18 -30 -1 -0 -0 -0 -0 -0 -0 -0 -0 -0 -0 -0 -0 -0 -0 -0 -0 -0
-0 -0 -0 -0 -0 -0 -0 -0 -0 -0 -0 -0 -2 -7 -2 -1 -8 -3 -0 -0 -33 -46 -0 -0 -48 -21 -90 -24 -12 -0 -0 -0 -0 -0 -0 -0 -0 -0 -0 -0 -0 -0 -0 -0 -0 -0 -0
-0 -0 -0 -0 -0 -0 -0 -0 -0 -0 -0 -1 -0 -3 -1 -4 -0 -0 -0 -0 -0 -35 -46 -1 -0 -0 -71 -34 -0 -0 -0 -0 -0 -0 -0 -0 -0 -0 -0 -0 -0 -0 -0 -0 -0 -0 -0
Wind_Speed
3 5 5 5 7 7 11 8 8 9 10 10 10 9 8 8 8 7 8 9 9 9 12 15 17 19 7 5 8 4 7 5 4 1 2 3 4 3 3 4 5 5 3 2 6 8 7
4 2 2 3 5 6 7 7 9 11 7 9 9 9 9 9 8 9 7 7 10 9 11 14 16 17 3 3 4 4 5 3 5 2 4 1 3 4 5 4 0 3 3 3 1 2 3
4 3 4 4 1 2 4 6 7 7 6 8 7 9 9 9 8 10 8 7 8 8 10 13 13 6 1 14 2 1 3 5 4 3 3 1 2 3 3 7 5 3 5 4 4 3 3
4 1 2 3 3 0 3 3 5 6 6 7 7 7 8 9 9 9 10 7 8 8 10 9 10 4 8 7 5 6 9 7 6 4 0 4 2 1 2 4 8 5 3 2 4 4 6
4 5 3 1 2 2 1 4 3 7 5 6 7 8 7 7 8 8 9 9 9 12 11 8 1 3 11 10 3 9 9 8 4 2 1 2 3 2 4 1 4 3 4 5 9 7 5
9 8 6 5 3 4 1 2 3 4 7 7 7 7 7 8 6 7 5 6 6 8 7 4 3 4 6 5 4 3 5 5 2 4 1 2 4 1 4 4 7 6 4 4 6 4 3
11 12 10 8 7 6 4 4 4 4 5 7 8 7 5 6 5 4 4 3 3 2 2 9 8 6 6 4 5 4 3 5 4 3 6 3 3 8 11 8 6 5 4 5 4 4 4
12 12 12 10 10 8 7 5 4 5 4 5 9 9 5 6 2 11 3 3 0 1 8 10 15 16 14 5 5 10 4 6 5 8 4 1 11 13 7 7 9 11 11 7 1 2 5
10 7 7 8 11 11 10 8 6 4 3 5 7 9 4 4 13 5 2 4 5 2 4 7 9 11 11 10 15 15 7 6 6 7 9 10 12 7 12 11 10 5 4 4 5 2 5
11 10 9 10 11 10 10 10 7 5 4 5 5 8 9 12 3 3 2 5 5 2 5 7 7 10 11 11 14 20 15 10 6 11 9 9 17 17 11 12 10 7 4 4 4 4 5
13 12 10 10 10 9 8 8 8 8 6 6 4 2 12 3 5 2 3 7 4 3 2 7 7 6 6 13 3 9 22 7 16 10 8 10 2 7 14 10 7 6 4 4 3 3 3
15 14 13 12 11 9 8 7 8 9 8 7 6 6 12 3 2 2 5 7 1 5 14 6 4 7 6 9 5 2 15 4 6 7 11 7 6 5 7 2 5 8 5 6 5 3 4
13 13 14 13 13 12 11 10 9 9 9 8 8 6 9 5 4 4 4 3 3 7 4 7 5 5 7 7 9 2 12 16 14 12 18 10 17 6 5 6 4 6 7 2 3 0 7
14 12 12 11 10 10 10 10 10 10 9 10 9 6 6 4 1 6 3 2 7 9 15 3 2 13 10 8 6 13 6 9 17 5 4 11 6 15 7 9 8 6 9 8 7 5 4
17 15 13 14 14 13 13 13 12 11 10 9 10 1 2 5 6 3 5 8 10 7 5 8 15 14 5 6 11 15 20 19 12 18 11 7 7 4 7 7 14 6 5 7 3 3 3
22 18 15 14 14 15 15 14 13 13 11 11 4 2 4 9 9 5 8 13 7 10 5 4 4 5 8 7 5 8 10 11 11 17 6 6 3 2 2 5 4 7 7 4 1 5 6
22 21 17 15 15 15 15 14 15 14 14 10 3 3 4 14 7 5 10 10 16 18 7 5 4 5 5 4 11 11 6 10 9 12 17 7 5 2 3 2 8 4 3 3 5 5 5
17 18 18 16 15 16 16 16 17 16 15 6 3 6 4 12 10 4 11 11 17 15 13 8 4 7 7 6 5 4 10 9 7 8 14 9 6 9 6 5 5 7 7 7 5 4 3
18 18 19 19 19 18 18 17 17 18 17 5 3 3 5 10 11 14 7 11 15 16 15 9 15 8 4 5 6 8 7 6 6 4 10 8 2 1 2 1 3 3 4 4 4 3 5
18 19 20 21 22 21 21 20 19 18 18 6 4 5 4 9 7 16 16 16 18 17 14 17 5 17 9 5 7 5 7 5 7 3 6 11 5 9 16 1 3 6 5 9 6 6 6
18 18 19 20 21 22 23 22 22 21 19 8 6 5 6 7 14 17 16 14 20 13 15 15 6 14 11 8 6 7 6 4 5 2 7 3 8 5 2 8 4 3 8 10 11 14 10
16 18 19 20 22 23 24 24 23 22 22 11 6 5 3 8 1 19 22 20 19 19 11 21 22 21 13 13 9 5 6 5 5 0 5 6 1 2 3 4 4 11 16 18 12 13 10
17 19 20 21 23 24 25 25 26 26 25 9 6 3 1 11 19 13 21 29 31 27 21 23 18 15 10 21 7 8 6 6 8 9 8 9 7 4 10 9 8 8 23 18 9 5 7
20 22 22 24 25 26 25 24 27 27 28 10 4 5 8 11 10 15 15 19 23 24 18 13 17 12 24 6 5 4 4 4 8 7 6 7 7 3 0 8 8 9 11 21 19 7 8
22 23 23 24 25 26 26 28 28 29 31 13 8 9 9 11 13 16 17 12 14 17 17 16 17 13 3 5 2 0 2 4 4 3 5 5 5 4 5 7 8 8 5 7 12 6 1
21 22 26 29 30 29 28 28 30 30 31 15 12 12 8 10 19 20 14 16 12 10 9 16 5 6 5 4 4 6 6 4 5 3 4 7 10 5 4 5 9 5 6 1 4 3 6
22 27 30 32 34 34 34 36 36 36 35 20 9 18 12 12 13 14 17 15 17 7 4 3 6 5 6 6 6 5 5 7 8 9 7 6 4 9 4 4 7 5 2 4 8 4 10
27 30 31 17 13 18 19 20 21 28 40 26 19 17 16 8 10 17 21 19 5 12 14 4 4 2 2 7 4 4 5 7 5 6 9 11 9 5 4 5 11 3 3 6 6 10 13
30 26 11 13 16 17 20 21 22 23 23 28 5 19 17 11 4 14 17 23 13 9 10 6 6 4 5 3 4 2 1 2 6 4 2 3 8 7 8 6 2 2 5 10 13 17 9
Wind_Direction
29 10 32 33 33 20 33 1 270 250 246 246 253 254 251 255 259 274 294 317 322 332 337 339 336 334 2 350 259 226 182 226 285 216 255 327 323 344 303 292 330 197 317 26 150 173 160
273 277 358 23 42 35 37 31 28 29 324 267 255 255 258 257 263 272 280 301 312 328 333 337 340 325 40 294 279 186 201 197 240 259 279 33 305 267 270 282 171 276 276 301 271 273 216
267 255 273 273 322 24 34 28 23 19 11 26 315 273 261 259 257 267 274 277 302 322 327 329 337 319 308 236 284 102 200 250 212 195 304 317 16 29 11 314 313 282 332 338 229 198 230
234 235 356 272 6 78 331 10 357 342 352 358 346 352 286 262 262 268 278 281 286 297 308 323 327 296 253 256 275 239 246 261 267 252 252 324 8 107 186 298 338 336 23 355 283 136 212
250 214 208 193 297 301 322 316 335 336 334 335 330 324 331 286 253 259 270 283 291 302 300 291 355 271 267 301 231 250 177 207 216 219 218 339 47 217 349 122 351 333 247 235 313 201 149
241 243 226 209 235 276 311 4 333 326 324 313 318 314 325 316 267 248 255 276 303 325 285 190 254 342 261 261 258 222 169 181 163 153 35 112 37 336 4 113 221 217 210 253 241 235 117
241 238 237 234 223 233 243 253 278 292 320 321 312 304 319 327 278 198 126 304 293 268 264 206 185 220 289 310 273 236 189 137 113 127 175 202 132 219 223 219 246 286 301 263 278 180 108
242 239 235 240 227 234 241 246 271 273 303 331 331 329 316 323 288 138 140 170 146 125 297 238 255 256 273 265 303 297 121 156 158 223 146 356 241 231 223 234 243 255 247 246 300 110 111
220 226 232 244 240 237 234 233 239 261 276 314 326 333 306 35 120 111 165 165 149 191 275 262 222 228 227 214 229 234 186 184 178 200 214 202 235 222 224 250 238 239 200 209 195 24 359
225 214 218 238 240 241 237 232 221 235 253 278 309 333 124 133 158 153 189 192 194 112 287 255 231 249 198 217 255 213 207 167 209 202 221 236 243 246 250 236 193 207 188 152 106 98 191
232 220 211 220 233 229 240 229 223 226 236 249 272 260 155 134 128 198 287 143 142 67 304 255 188 210 189 177 156 208 193 181 200 189 160 225 204 205 229 229 177 216 147 132 118 104 62
237 225 217 214 215 216 222 226 227 223 230 239 252 211 169 62 5 294 97 111 92 83 235 282 229 184 136 198 240 54 170 146 158 203 247 222 264 169 210 147 177 146 82 40 42 85 271
236 232 231 230 224 216 212 210 219 223 226 235 239 236 173 136 203 154 125 105 175 192 265 238 204 197 186 184 217 212 175 188 194 201 229 242 244 244 175 105 15 101 97 303 320 270 234
235 229 226 219 222 225 218 223 228 225 226 228 234 212 206 177 189 139 113 161 208 224 231 270 56 242 223 183 217 222 202 197 215 174 160 209 286 204 186 171 161 195 159 160 213 205 239
239 223 221 223 225 225 220 217 220 221 222 225 230 204 200 196 153 139 159 222 201 218 197 256 274 279 283 245 207 202 218 223 200 197 182 189 242 236 185 153 149 198 193 167 82 283 55
239 231 223 220 222 227 223 225 217 221 220 225 143 204 219 168 149 155 202 221 232 244 309 17 223 237 241 254 267 225 211 229 221 203 164 209 288 320 124 95 65 146 155 100 354 195 222
239 232 227 223 224 222 224 224 224 223 222 217 135 219 250 147 135 198 203 227 236 248 236 215 248 252 270 250 230 234 235 237 214 205 196 176 125 317 74 186 162 130 161 183 167 168 186
231 234 236 234 230 228 221 221 225 222 219 179 166 218 168 146 194 190 203 207 223 237 240 261 275 247 233 241 289 281 234 214 204 170 193 191 154 220 190 217 199 199 193 165 150 199 249
241 238 239 235 236 232 231 225 223 220 206 132 186 227 208 178 206 216 201 216 231 229 227 220 232 219 236 251 222 221 271 350 322 152 177 167 207 171 196 63 347 206 206 189 146 110 208
242 243 240 238 238 236 232 226 224 219 211 155 177 201 249 216 209 205 208 212 220 234 245 230 246 231 259 286 229 252 232 224 335 37 351 112 131 209 233 160 146 187 200 220 184 231 232
244 244 243 242 241 239 235 231 225 220 213 183 186 221 207 195 210 201 203 207 220 226 213 226 268 245 222 232 238 230 222 232 181 55 10 71 164 161 172 118 77 338 320 278 216 225 211
246 249 249 246 244 242 236 232 224 217 211 212 190 188 252 238 347 214 203 209 211 221 203 215 215 230 224 232 212 201 192 215 208 5 126 335 299 104 246 208 242 244 236 260 256 232 249
253 254 250 248 246 241 237 230 225 217 203 208 217 186 36 229 226 233 213 213 212 216 226 231 218 234 245 237 218 227 233 260 248 179 184 177 158 156 256 258 267 269 234 230 248 204 195
255 258 255 253 250 243 236 231 222 221 208 205 195 158 216 245 227 229 246 219 218 219 212 197 217 212 240 78 88 42 29 341 217 213 156 157 124 94 301 107 216 254 198 202 215 199 160
258 262 264 262 259 253 248 230 223 222 217 212 202 200 203 235 234 239 229 226 242 248 250 235 244 236 173 70 106 204 29 353 309 250 159 134 114 135 189 211 311 299 234 191 188 178 185
270 271 277 268 258 251 243 239 232 225 217 215 213 206 218 225 225 228 232 218 233 234 223 239 230 192 115 106 165 222 191 169 182 177 123 103 110 170 158 206 219 242 262 230 71 195 138
278 281 278 270 260 251 243 238 232 227 222 213 211 202 201 221 234 210 221 222 214 190 285 209 204 203 173 168 198 181 224 174 165 169 163 143 146 201 195 232 275 249 256 127 199 200 117
291 283 280 271 256 231 215 215 219 217 214 206 209 194 203 219 241 212 230 231 214 201 198 223 73 250 101 180 205 193 174 209 148 177 174 172 160 178 181 225 257 231 18 169 134 109 115
288 279 258 258 252 250 241 231 215 209 210 192 211 190 188 201 227 224 226 226 234 218 187 202 177 162 168 154 193 236 187 111 149 195 146 188 175 170 179 210 220 14 106 112 129 116 121